Content
SEND FEEDBACK

Daily
Averages
Monthly
Summary
Indonesia

HASANUDIN, INDONESIA


Home > Asia > Indonesia
Elevation: 46 feet     Latitude: 05 04S     Longitude: 119 33E

WEATHER
 
SELECT A DAY
Number of Records: 195,737;   Date Range: 9/17/97 - 7/8/14
 
SHARE

PRINT THIS DATA

[ ← Previous Day ]
WEATHER ALMANAC - FEBRUARY 14, 2013
[ Next Day → ]
[ °C ]   °F
Weather ElementAverageHighLow
Temperature80.8 °F87.8 °F (12:30 pm)73.4 °F (3:00 am)
Dewpoint76.5 °F80.6 °F (7:30 pm)73.4 °F (3:00 am)
Humidity87.5 %100 % (12:30 am)61 % (5:00 pm)
Barometer29.76 in29.81 in (8:00 am)29.68 in (4:00 pm)
Wind Speed5.4 mph12.7 mph (2:30 pm)
Wind Gust54.1 mph (11:00 pm)
Weather ElementAverage
Visibility5.5 mi
Wind DirectionSSE (154.2 °)

Weather ElementTotal
Precipitation---
Cooling Degree Days15.6 (Base 65)
Growing Degree Days30.6 (Base 50)
Averaged from 55 records on February 14, 2013
WEATHER CONDITIONS BREAKOUT
WIND DIRECTION BREAKOUT
WEATHER BY HOUR - FEBRUARY 14, 2013
[ °C ]   °F
Local TimeTemperatureDewpointHumidityBarometerVisibilityWind DirectionWind SpeedGust SpeedPrecipitationEventsConditions
12:30 AM75.2 °F75.2 °F100 %29.80 in4.3 miENE (70°)3.5 mphPartly Cloudy
1:00 AM75.2 °F75.2 °F100 %29.80 in5.0 miENE (60°)3.5 mphPartly Cloudy
1:30 AM75.2 °F75.2 °F100 %29.77 in5.0 miEast (80°)3.5 mphPartly Cloudy
2:00 AM74.0 °F74.0 °F100 %29.79 in5.0 miEast (100°)3.5 mphPartly Cloudy
2:00 AM75.2 °F75.2 °F100 %29.77 in5.0 miENE (70°)4.6 mphPartly Cloudy
2:30 AM75.2 °F75.2 °F100 %29.77 in5.0 miEast (100°)3.5 mphPartly Cloudy
3:00 AM73.4 °F73.4 °F100 %29.77 in5.0 miCalmPartly Cloudy
3:30 AM73.4 °F73.4 °F100 %29.77 in5.0 miENE (60°)2.3 mphPartly Cloudy
4:00 AM73.4 °F73.4 °F100 %29.77 in5.0 miVariable2.3 mphPartly Cloudy
4:30 AM73.4 °F73.4 °F100 %29.77 in5.0 miVariable2.3 mphPartly Cloudy
5:00 AM74.0 °F74.0 °F100 %29.78 in5.0 miEast (90°)2.3 mphScattered Clouds
5:00 AM73.4 °F73.4 °F100 %29.77 in5.0 miCalmPartly Cloudy
5:30 AM75.2 °F75.2 °F100 %29.77 in5.0 miVariable2.3 mphPartly Cloudy
6:00 AM73.4 °F73.4 °F100 %29.77 in5.0 miEast (80°)3.5 mphPartly Cloudy
6:30 AM73.4 °F73.4 °F100 %29.77 in5.6 miVariable1.2 mphPartly Cloudy
7:00 AM75.2 °F75.2 °F100 %29.77 in5.6 miCalmPartly Cloudy
7:30 AM75.2 °F75.2 °F100 %29.80 in6.2 miVariable1.2 mphPartly Cloudy
8:00 AM76.0 °F76.0 °F100 %29.81 in6.0 miESE (110°)1.2 mphScattered Clouds
8:00 AM75.2 °F75.2 °F100 %29.80 in6.2 miVariable2.3 mphPartly Cloudy
8:30 AM78.8 °F77.0 °F94 %29.80 in6.2 miVariable1.2 mphPartly Cloudy
9:00 AM80.6 °F77.0 °F89 %29.80 in6.2 miVariable2.3 mphPartly Cloudy
9:30 AM84.2 °F78.8 °F84 %29.80 in6.2 miVariable2.3 mphPartly Cloudy
10:00 AM86.0 °F77.0 °F74 %29.80 in6.2 miNW (310°)5.8 mphPartly Cloudy
10:30 AM86.0 °F78.8 °F79 %29.80 in6.2 miWNW (290°)5.8 mphPartly Cloudy
11:00 AM86.0 °F78.0 °F70 %29.80 in6.0 miNW (320°)5.8 mphScattered Clouds
11:00 AM86.0 °F77.0 °F74 %29.80 in6.2 miNNW (330°)4.6 mphPartly Cloudy
11:30 AM86.0 °F77.0 °F74 %29.77 in6.2 miNNW (330°)8.1 mphPartly Cloudy
12:00 PM86.0 °F77.0 °F74 %29.77 in6.2 miNW (310°)8.1 mphScattered Clouds
12:30 PM87.8 °F75.2 °F66 %29.77 in6.2 miNW (320°)9.2 mphPartly Cloudy
1:00 PM87.8 °F77.0 °F70 %29.74 in6.2 miWest (280°)10.4 mphPartly Cloudy
1:30 PM87.8 °F77.0 °F70 %29.74 in6.2 miWNW (300°)11.5 mphPartly Cloudy
2:00 PM87.0 °F78.0 °F68 %29.75 in6.0 miNW (310°)9.2 mphScattered Clouds
2:00 PM87.8 °F77.0 °F70 %29.74 in6.2 miWNW (300°)11.5 mphPartly Cloudy
2:30 PM87.8 °F78.8 °F75 %29.71 in6.2 miWNW (300°)12.7 mphScattered Clouds
3:00 PM87.8 °F78.8 °F75 %29.71 in6.2 miWNW (290°)11.5 mphScattered Clouds
3:30 PM87.8 °F78.8 °F75 %29.71 in6.2 miWNW (300°)11.5 mphScattered Clouds
4:00 PM87.8 °F77.0 °F70 %29.68 in6.2 miWest (280°)10.4 mphScattered Clouds
4:30 PM87.8 °F77.0 °F70 %29.68 in6.2 miWNW (300°)10.4 mphPartly Cloudy
5:00 PM87.0 °F75.0 °F61 %29.70 in6.0 miWNW (290°)8.1 mphPartly Cloudy
5:00 PM87.8 °F75.2 °F66 %29.68 in6.2 miWest (270°)9.2 mphPartly Cloudy
5:30 PM86.0 °F77.0 °F74 %29.71 in6.2 miWNW (290°)8.1 mphScattered Clouds
6:00 PM86.0 °F77.0 °F74 %29.71 in6.2 miWNW (290°)6.9 mphScattered Clouds
6:30 PM84.2 °F77.0 °F79 %29.71 in5.0 miWNW (290°)5.8 mphScattered Clouds
7:00 PM84.2 °F77.0 °F79 %29.74 in5.0 miWNW (290°)3.5 mphScattered Clouds
7:30 PM82.4 °F80.6 °F94 %29.74 in5.0 miESE (110°)4.6 mphScattered Clouds
8:00 PM81.0 °F79.0 °F91 %29.77 in4.0 miESE (120°)6.9 mphPartly Cloudy
8:00 PM80.6 °F78.8 °F94 %29.77 in4.3 miESE (110°)3.5 mphPartly Cloudy
8:30 PM80.6 °F78.8 °F94 %29.77 in4.3 miEast (100°)5.8 mphThunderstormThunderstorm
9:00 PM78.8 °F77.0 °F94 %29.77 in4.3 miEast (90°)5.8 mphPartly Cloudy
9:30 PM78.8 °F78.8 °F100 %29.77 in4.3 miENE (70°)4.6 mphPartly Cloudy
10:00 PM78.8 °F78.8 °F100 %29.80 in4.3 miEast (90°)4.6 mphPartly Cloudy
10:30 PM78.8 °F78.8 °F100 %29.80 in4.3 miEast (80°)6.9 mphPartly Cloudy
11:00 PM78.0 °F78.0 °F100 %29.79 in5.0 miESE (110°)4.6 mphScattered Clouds
11:00 PM78.8 °F78.8 °F100 %29.77 in5.0 miEast (100°)6.9 mph54.1 mphPartly Cloudy
11:30 PM78.8 °F77.0 °F94 %29.77 in5.0 miEast (90°)4.6 mphPartly Cloudy
Hourly data recorded from WAAA, located miles away from Hasanudin, Indonesia







STORIES FROM OUR PARTNERS